Regional Weather Roundup
Issued by NWS Midland/Odessa, TX

Skip options and go directly to product.
Home | Oldest Version | Previous Version | Current Version | All | Graphics & Text | Save Text | Print | Product List | Glossary On

Skip product version selection by date and time.   
703
ASUS44 KMAF 212202
RWRMAF
MIDLAND AREA WEATHER ROUNDUP
NATIONAL WEATHER SERVICE MIDLAND TX
500 PM CDT THU AUG 21 2014

...IN SOUTHWEST TEXAS AND SOUTHEAST NEW MEXICO...

CITY           SKY/WX    TMP DP  RH WIND       PRES   REMARKS
ALPINE         SUNNY     84  58  39 SW7       30.14F
ANDREWS        FAIR      98  55  24 S13G20    29.97F
ARTESIA        MOSUNNY   95  46  18 S10       29.96F
BIG SPRING     MOSUNNY  100  59  25 SE20      29.97F
CARLSBAD       MOSUNNY   98  46  17 VRB5G22   29.93F
DRYDEN           N/A     85  67  54 S29G41    29.97R
FORT STOCKTON  MOSUNNY   96  57  27 S13       29.96F
GUAD PASS      MOSUNNY   89  49  25 SW9G24    30.15F
HOBBS          PTSUNNY   95  50  21 S17       30.00F
MARFA          SUNNY     88  55  33 S12G17    30.14F
MIDLAND AIRPK  MOSUNNY   97  59  28 SE13G24   29.96F
MIDLAND INTL   MOSUNNY   95  62  33 S15       29.96F
ODESSA         MOSUNNY   94  58  29 S9        29.97F
PECOS          MOSUNNY   94  56  27 W14       29.93F
PRESIDIO       FAIR      95  58  28 SE7       29.95F
SEMINOLE       SUNNY     96  50  21 S8        29.98F
SNYDER         SUNNY     95  64  35 S12G18    29.96F
WINK           MOSUNNY  100  52  19 S8        29.92F
$$
...OTHER STATIONS IN TEXAS...

CITY           SKY/WX    TMP DP  RH WIND       PRES   REMARKS
ABILENE        MOSUNNY   97  65  34 S17G28    29.96F
AMARILLO       MOSUNNY   96  55  25 S14G23    29.97R
AUSTIN         MOSUNNY  101  61  26 S20G25    29.95F HX 102
BROWNSVILLE    MOSUNNY   95  75  52 S21G29    29.99F HX 107
CORPUS CHRISTI MOSUNNY   94  75  54 SE26      29.98F HX 105
DALLAS FTW     MOSUNNY   98  65  33 S18       29.94F HX 101
DEL RIO        SUNNY     98  66  34 S12       29.90F HX 101
EL PASO        MOSUNNY   92  49  22 VRB5      30.01F
HOUSTON INT    MOSUNNY   96  68  39 S8G18     30.02S HX 101
LUBBOCK        MOSUNNY   94  60  32 S12       29.97F
SAN ANGELO     MOSUNNY   97  63  32 S10       29.96F
SAN ANTONIO    MOSUNNY  102  62  26 S16G22    29.96F HX 104
WACO           SUNNY    100  62  28 S18G25    29.95F HX 101
WICHITA FALLS  NOT AVBL
$$
...OTHER LOCATIONS IN NEW MEXICO...

CITY           SKY/WX    TMP DP  RH WIND       PRES   REMARKS
ALAMAGORDO     MOSUNNY   91  45  19 S13       30.02F
ALBUQUERQUE    PTSUNNY   86  36  16 SW12      30.10F
CANNON AFB     NOT AVBL
CLOVIS           N/A     95  48  20 SW7       30.02F
HOLLOMAN AFB   MOSUNNY   93  43  17 VRB3      30.00F
ROSWELL        MOSUNNY   95  51  22 SE12      29.96F
RUIDOSO        MOSUNNY   77  46  33 SE8       30.24F
SANTA FE       PTSUNNY   82  33  17 VRB5      30.16F
TRUTH OR CONSE SUNNY     88  46  23 S9        30.05F
TUCUMCARI      SUNNY     98  41  14 S13G21    29.95F
$$

USA.gov is the U.S. government's official web portal to all federal, state and local government web resources and services.